sat.trackr.live / text

‹ back to catalog

STARLINK-33854

NORAD 63635 · 2025-083B

PAYLOAD ACTIVE UNKNOWN

§ Identity

Operator
Country
US
Launch date
2025-04-25
Launch site
AFETR
Launch vehicle
Mass (kg)
RCS (m²)

Purposes: comms

External: N2YO · Heavens-Above · Gunter

§ Orbital elements

Epoch: 2026-09-20T12:05:51.882144Z

Period
94.27 min
Inclination
43.0015°
Eccentricity
0.0001389
Mean motion
15.27590239 rev/d
Perigee alt
482.1 km
Apogee alt
484.0 km
Semi-major
6,861.2 km
B*
3.7065e-4
RAAN
344.7900°
Arg perigee
260.5473°
Mean anomaly
99.5222°
Rev number
7,986

§ Raw data

STARLINK-338541 63635U 25083B   26263.50407271  .00009954  00000+0  37065-3 0  99962 63635  43.0015 344.7900 0001389 260.5473  99.5222 15.27590239 79865

JSON: /api/v1/satellites/63635 · /tle

For live sub-satellite position, see the globe view (requires WebGL).

§ Visibility from observer

Set your observer location to see the next 7 days of passes ≥ 10°. The values pass through the URL so the page stays shareable.

No JS? Fill the form by hand. The geolocation button needs JavaScript.